Location: Ingoldesthorpe
(52.8667°N, 0.5167°E)
Time: 11:53:57
(UTC+00:00)

Spot 1 - Pass Details

Date: 19 May 2025
Orbit: 568 x 753 km, 98.7° (Epoch: 11 June)

Event Time Altitude Azimuth Distance (km) Brightness Sun altitude
Rises 23:17:40 0° 18° (NNE) 2,853 8.6 -16.7°
Reaches altitude 10° 23:19:50 10° 23° (NNE) 1,969 7.5 -16.8°
Maximum altitude 23:24:02 56° 102° (ESE) 753 4.3 -16.8°
Enters shadow 23:25:50 32° 165° (SSE) 1,093 4.7 -16.9°
